{"data":{"norad_id":65628,"epoch":"2026-09-20T07:55:58.346688Z","epoch_age_seconds":126537,"freshness":"FRESH","line1":"1 65628U 25210G   26263.33053642  .00022655  00000+0  67970-3 0  9993","line2":"2 65628  53.1593 118.5887 0001385  73.5687 286.5468 15.34395496 57590","mean_motion":15.34395496,"eccentricity":0.0001385,"inclination_deg":53.1593,"raan_deg":118.5887,"arg_perigee_deg":73.5687,"mean_anomaly_deg":286.5468,"bstar":0.0006797,"rev_number":5759,"period_min":93.848033558096,"perigee_km":461.76916884968,"apogee_km":463.66408530438,"semimajor_km":6840.853627077,"source":"CELESTRAK","updated_at":"2026-09-21T09:00:35.673582Z"}}